owner,sensor,date,latitude,longitude,air_pressure(mBar),qcFlag 
COMPS,ioos:station:USF.COMPS:C12:1,2017-04-01T00:05:00Z,27.4980,-83.7220,1010.76,1111122 
COMPS,ioos:station:USF.COMPS:C12:1,2017-04-01T00:35:00Z,27.4980,-83.7220,1011.01,1111122 
COMPS,ioos:station:USF.COMPS:C12:1,2017-04-01T01:05:00Z,27.4980,-83.7220,1011.31,1111122 
COMPS,ioos:station:USF.COMPS:C12:1,2017-04-01T01:35:00Z,27.4980,-83.7220,1011.45,1111122 
COMPS,ioos:station:USF.COMPS:C12:1,2017-04-01T02:05:00Z,27.4980,-83.7220,1011.58,1111122 
COMPS,ioos:station:USF.COMPS:C12:1,2017-04-01T02:35:00Z,27.4980,-83.7220,1011.83,1111122 
COMPS,ioos:station:USF.COMPS:C12:1,2017-04-01T03:05:00Z,27.4980,-83.7220,1012.14,1111122 
COMPS,ioos:station:USF.COMPS:C12:1,2017-04-01T03:35:00Z,27.4980,-83.7220,1012.32,1111122 
COMPS,ioos:station:USF.COMPS:C12:1,2017-04-01T04:05:00Z,27.4980,-83.7220,1012.2,1111122 
COMPS,ioos:station:USF.COMPS:C12:1,2017-04-01T04:35:00Z,27.4980,-83.7220,1012.06,1111122 
COMPS,ioos:station:USF.COMPS:C12:1,2017-04-01T05:05:00Z,27.4980,-83.7220,1012.01,1111122 
COMPS,ioos:station:USF.COMPS:C12:1,2017-04-01T05:35:00Z,27.4980,-83.7220,1011.98,1111122 
COMPS,ioos:station:USF.COMPS:C12:1,2017-04-01T06:05:00Z,27.4980,-83.7220,1012.1,1111122 
COMPS,ioos:station:USF.COMPS:C12:1,2017-04-01T06:35:00Z,27.4980,-83.7220,1012.13,1111122 
COMPS,ioos:station:USF.COMPS:C12:1,2017-04-01T07:05:00Z,27.4980,-83.7220,1012.0,1111122 
COMPS,ioos:station:USF.COMPS:C12:1,2017-04-01T07:35:00Z,27.4980,-83.7220,1011.97,1111122 
COMPS,ioos:station:USF.COMPS:C12:1,2017-04-01T08:05:00Z,27.4980,-83.7220,1011.94,1111122 
COMPS,ioos:station:USF.COMPS:C12:1,2017-04-01T08:35:00Z,27.4980,-83.7220,1011.98,1111122 
COMPS,ioos:station:USF.COMPS:C12:1,2017-04-01T09:05:00Z,27.4980,-83.7220,1012.25,1111122 
COMPS,ioos:station:USF.COMPS:C12:1,2017-04-01T09:35:00Z,27.4980,-83.7220,1012.36,1111122 
COMPS,ioos:station:USF.COMPS:C12:1,2017-04-01T10:05:00Z,27.4980,-83.7220,1012.46,1111122 
COMPS,ioos:station:USF.COMPS:C12:1,2017-04-01T10:35:00Z,27.4980,-83.7220,1012.77,1111122 
COMPS,ioos:station:USF.COMPS:C12:1,2017-04-01T11:05:00Z,27.4980,-83.7220,1013.1,1111122 
COMPS,ioos:station:USF.COMPS:C12:1,2017-04-01T11:35:00Z,27.4980,-83.7220,1013.18,1111122 
COMPS,ioos:station:USF.COMPS:C12:1,2017-04-01T12:05:00Z,27.4980,-83.7220,1013.57,1111122 
COMPS,ioos:station:USF.COMPS:C12:1,2017-04-01T12:35:00Z,27.4980,-83.7220,1014.02,1111122 
COMPS,ioos:station:USF.COMPS:C12:1,2017-04-01T13:05:00Z,27.4980,-83.7220,1014.71,1111122 
COMPS,ioos:station:USF.COMPS:C12:1,2017-04-01T13:35:00Z,27.4980,-83.7220,1015.12,1111122 
COMPS,ioos:station:USF.COMPS:C12:1,2017-04-01T14:05:00Z,27.4980,-83.7220,1015.78,1111122 
COMPS,ioos:station:USF.COMPS:C12:1,2017-04-01T14:35:00Z,27.4980,-83.7220,1016.05,1111122 
COMPS,ioos:station:USF.COMPS:C12:1,2017-04-01T15:05:00Z,27.4980,-83.7220,1016.48,1111122 
COMPS,ioos:station:USF.COMPS:C12:1,2017-04-01T15:35:00Z,27.4980,-83.7220,1016.46,1111122 
COMPS,ioos:station:USF.COMPS:C12:1,2017-04-01T16:05:00Z,27.4980,-83.7220,1016.39,1111122 
COMPS,ioos:station:USF.COMPS:C12:1,2017-04-01T16:35:00Z,27.4980,-83.7220,1016.07,1111122 
COMPS,ioos:station:USF.COMPS:C12:1,2017-04-01T17:05:00Z,27.4980,-83.7220,1015.78,1111122 
COMPS,ioos:station:USF.COMPS:C12:1,2017-04-01T17:35:00Z,27.4980,-83.7220,1015.62,1111122 
COMPS,ioos:station:USF.COMPS:C12:1,2017-04-01T18:05:00Z,27.4980,-83.7220,1015.58,1111122 
COMPS,ioos:station:USF.COMPS:C12:1,2017-04-01T18:35:00Z,27.4980,-83.7220,1015.45,1111122 
COMPS,ioos:station:USF.COMPS:C12:1,2017-04-01T19:05:00Z,27.4980,-83.7220,1015.06,1111122 
COMPS,ioos:station:USF.COMPS:C12:1,2017-04-01T19:35:00Z,27.4980,-83.7220,1014.83,1111122 
COMPS,ioos:station:USF.COMPS:C12:1,2017-04-01T20:05:00Z,27.4980,-83.7220,1014.64,1111122 
COMPS,ioos:station:USF.COMPS:C12:1,2017-04-01T20:35:00Z,27.4980,-83.7220,1014.47,1111122 
COMPS,ioos:station:USF.COMPS:C12:1,2017-04-01T21:05:00Z,27.4980,-83.7220,1014.25,1111122 
COMPS,ioos:station:USF.COMPS:C12:1,2017-04-01T21:35:00Z,27.4980,-83.7220,1014.23,1111122 
COMPS,ioos:station:USF.COMPS:C12:1,2017-04-01T22:05:00Z,27.4980,-83.7220,1014.19,1111122 
COMPS,ioos:station:USF.COMPS:C12:1,2017-04-01T22:35:00Z,27.4980,-83.7220,1014.1,1111122 
COMPS,ioos:station:USF.COMPS:C12:1,2017-04-01T23:05:00Z,27.4980,-83.7220,1014.19,1111122 
COMPS,ioos:station:USF.COMPS:C12:1,2017-04-01T23:35:00Z,27.4980,-83.7220,1014.37,1111122 
COMPS,ioos:station:USF.COMPS:C12:1,2017-04-02T00:05:00Z,27.4980,-83.7220,1014.68,1111122 
COMPS,ioos:station:USF.COMPS:C12:1,2017-04-02T00:35:00Z,27.4980,-83.7220,1014.68,1111122 
COMPS,ioos:station:USF.COMPS:C12:1,2017-04-02T01:05:00Z,27.4980,-83.7220,1015.04,1111122 
COMPS,ioos:station:USF.COMPS:C12:1,2017-04-02T01:35:00Z,27.4980,-83.7220,1015.42,1111122 
COMPS,ioos:station:USF.COMPS:C12:1,2017-04-02T02:05:00Z,27.4980,-83.7220,1015.63,1111122 
COMPS,ioos:station:USF.COMPS:C12:1,2017-04-02T02:35:00Z,27.4980,-83.7220,1015.97,1111122 
COMPS,ioos:station:USF.COMPS:C12:1,2017-04-02T03:05:00Z,27.4980,-83.7220,1015.95,1111122 
COMPS,ioos:station:USF.COMPS:C12:1,2017-04-02T03:35:00Z,27.4980,-83.7220,1015.84,1111122 
COMPS,ioos:station:USF.COMPS:C12:1,2017-04-02T04:05:00Z,27.4980,-83.7220,1015.91,1111122 
COMPS,ioos:station:USF.COMPS:C12:1,2017-04-02T04:35:00Z,27.4980,-83.7220,1015.65,1111122 
COMPS,ioos:station:USF.COMPS:C12:1,2017-04-02T05:05:00Z,27.4980,-83.7220,1015.58,1111122 
COMPS,ioos:station:USF.COMPS:C12:1,2017-04-02T05:35:00Z,27.4980,-83.7220,1015.42,1111122 
COMPS,ioos:station:USF.COMPS:C12:1,2017-04-02T06:05:00Z,27.4980,-83.7220,1015.05,1111122 
COMPS,ioos:station:USF.COMPS:C12:1,2017-04-02T06:35:00Z,27.4980,-83.7220,1015.04,1111122 
COMPS,ioos:station:USF.COMPS:C12:1,2017-04-02T07:05:00Z,27.4980,-83.7220,1014.84,1111122 
COMPS,ioos:station:USF.COMPS:C12:1,2017-04-02T07:35:00Z,27.4980,-83.7220,1014.48,1111122 
COMPS,ioos:station:USF.COMPS:C12:1,2017-04-02T08:05:00Z,27.4980,-83.7220,1014.24,1111122 
COMPS,ioos:station:USF.COMPS:C12:1,2017-04-02T08:35:00Z,27.4980,-83.7220,1014.14,1111122 
COMPS,ioos:station:USF.COMPS:C12:1,2017-04-02T09:05:00Z,27.4980,-83.7220,1014.1,1111122 
COMPS,ioos:station:USF.COMPS:C12:1,2017-04-02T09:35:00Z,27.4980,-83.7220,1014.17,1111122 
COMPS,ioos:station:USF.COMPS:C12:1,2017-04-02T10:05:00Z,27.4980,-83.7220,1014.17,1111122 
COMPS,ioos:station:USF.COMPS:C12:1,2017-04-02T10:35:00Z,27.4980,-83.7220,1014.56,1111122 
COMPS,ioos:station:USF.COMPS:C12:1,2017-04-02T11:05:00Z,27.4980,-83.7220,1015.03,1111122 
COMPS,ioos:station:USF.COMPS:C12:1,2017-04-02T11:35:00Z,27.4980,-83.7220,1015.04,1111122 
COMPS,ioos:station:USF.COMPS:C12:1,2017-04-02T12:05:00Z,27.4980,-83.7220,1015.37,1111122 
COMPS,ioos:station:USF.COMPS:C12:1,2017-04-02T12:35:00Z,27.4980,-83.7220,1015.5,1111122 
COMPS,ioos:station:USF.COMPS:C12:1,2017-04-02T13:05:00Z,27.4980,-83.7220,1015.58,1111122 
COMPS,ioos:station:USF.COMPS:C12:1,2017-04-02T13:35:00Z,27.4980,-83.7220,1015.66,1111122 
COMPS,ioos:station:USF.COMPS:C12:1,2017-04-02T14:05:00Z,27.4980,-83.7220,1015.58,1111122 
COMPS,ioos:station:USF.COMPS:C12:1,2017-04-02T14:35:00Z,27.4980,-83.7220,1015.58,1111122 
COMPS,ioos:station:USF.COMPS:C12:1,2017-04-02T15:05:00Z,27.4980,-83.7220,1015.58,1111122 
COMPS,ioos:station:USF.COMPS:C12:1,2017-04-02T15:35:00Z,27.4980,-83.7220,1015.7,1111122 
COMPS,ioos:station:USF.COMPS:C12:1,2017-04-02T16:05:00Z,27.4980,-83.7220,1015.85,1111122 
COMPS,ioos:station:USF.COMPS:C12:1,2017-04-02T16:35:00Z,27.4980,-83.7220,1015.58,1111122 
COMPS,ioos:station:USF.COMPS:C12:1,2017-04-02T17:05:00Z,27.4980,-83.7220,1015.36,1111122 
COMPS,ioos:station:USF.COMPS:C12:1,2017-04-02T17:35:00Z,27.4980,-83.7220,1015.2,1111122 
COMPS,ioos:station:USF.COMPS:C12:1,2017-04-02T18:05:00Z,27.4980,-83.7220,1015.11,1111122 
COMPS,ioos:station:USF.COMPS:C12:1,2017-04-02T18:35:00Z,27.4980,-83.7220,1014.94,1111122 
COMPS,ioos:station:USF.COMPS:C12:1,2017-04-02T19:05:00Z,27.4980,-83.7220,1014.77,1111122 
COMPS,ioos:station:USF.COMPS:C12:1,2017-04-02T19:35:00Z,27.4980,-83.7220,1014.29,1111122 
COMPS,ioos:station:USF.COMPS:C12:1,2017-04-02T20:05:00Z,27.4980,-83.7220,1014.09,1111122 
COMPS,ioos:station:USF.COMPS:C12:1,2017-04-02T20:35:00Z,27.4980,-83.7220,1013.69,1111122 
COMPS,ioos:station:USF.COMPS:C12:1,2017-04-02T21:05:00Z,27.4980,-83.7220,1013.53,1111122 
COMPS,ioos:station:USF.COMPS:C12:1,2017-04-02T21:35:00Z,27.4980,-83.7220,1013.47,1111122 
COMPS,ioos:station:USF.COMPS:C12:1,2017-04-02T22:05:00Z,27.4980,-83.7220,1013.28,1111122 
COMPS,ioos:station:USF.COMPS:C12:1,2017-04-02T22:35:00Z,27.4980,-83.7220,1013.22,1111122 
COMPS,ioos:station:USF.COMPS:C12:1,2017-04-02T23:05:00Z,27.4980,-83.7220,1012.82,1111122 
COMPS,ioos:station:USF.COMPS:C12:1,2017-04-02T23:35:00Z,27.4980,-83.7220,1012.55,1111122 
COMPS,ioos:station:USF.COMPS:C12:1,2017-04-03T00:05:00Z,27.4980,-83.7220,1012.36,1111122 
COMPS,ioos:station:USF.COMPS:C12:1,2017-04-03T00:35:00Z,27.4980,-83.7220,1012.49,1111122 
COMPS,ioos:station:USF.COMPS:C12:1,2017-04-03T01:05:00Z,27.4980,-83.7220,1012.56,1111122 
COMPS,ioos:station:USF.COMPS:C12:1,2017-04-03T01:35:00Z,27.4980,-83.7220,1013.04,1111122 
COMPS,ioos:station:USF.COMPS:C12:1,2017-04-03T02:05:00Z,27.4980,-83.7220,1013.16,1111122 
COMPS,ioos:station:USF.COMPS:C12:1,2017-04-03T02:35:00Z,27.4980,-83.7220,1013.43,1111122 
COMPS,ioos:station:USF.COMPS:C12:1,2017-04-03T03:05:00Z,27.4980,-83.7220,1013.43,1111122 
COMPS,ioos:station:USF.COMPS:C12:1,2017-04-03T03:35:00Z,27.4980,-83.7220,1013.27,1111122 
COMPS,ioos:station:USF.COMPS:C12:1,2017-04-03T04:05:00Z,27.4980,-83.7220,1013.16,1111122 
COMPS,ioos:station:USF.COMPS:C12:1,2017-04-03T04:35:00Z,27.4980,-83.7220,1013.08,1111122 
COMPS,ioos:station:USF.COMPS:C12:1,2017-04-03T05:05:00Z,27.4980,-83.7220,1012.77,1111122 
COMPS,ioos:station:USF.COMPS:C12:1,2017-04-03T05:35:00Z,27.4980,-83.7220,1012.42,1111122 
COMPS,ioos:station:USF.COMPS:C12:1,2017-04-03T06:05:00Z,27.4980,-83.7220,1012.18,1111122 
COMPS,ioos:station:USF.COMPS:C12:1,2017-04-03T06:35:00Z,27.4980,-83.7220,1011.82,1111122 
COMPS,ioos:station:USF.COMPS:C12:1,2017-04-03T07:05:00Z,27.4980,-83.7220,1011.8,1111122 
COMPS,ioos:station:USF.COMPS:C12:1,2017-04-03T07:35:00Z,27.4980,-83.7220,1011.56,1111122 
COMPS,ioos:station:USF.COMPS:C12:1,2017-04-03T08:05:00Z,27.4980,-83.7220,1011.23,1111122 
COMPS,ioos:station:USF.COMPS:C12:1,2017-04-03T08:35:00Z,27.4980,-83.7220,1011.01,1111122 
COMPS,ioos:station:USF.COMPS:C12:1,2017-04-03T09:05:00Z,27.4980,-83.7220,1010.76,1111122 
COMPS,ioos:station:USF.COMPS:C12:1,2017-04-03T09:35:00Z,27.4980,-83.7220,1010.82,1111122 
COMPS,ioos:station:USF.COMPS:C12:1,2017-04-03T10:05:00Z,27.4980,-83.7220,1011.05,1111122 
COMPS,ioos:station:USF.COMPS:C12:1,2017-04-03T10:35:00Z,27.4980,-83.7220,1011.08,1111122 
COMPS,ioos:station:USF.COMPS:C12:1,2017-04-03T11:05:00Z,27.4980,-83.7220,1011.09,1111122 
COMPS,ioos:station:USF.COMPS:C12:1,2017-04-03T11:35:00Z,27.4980,-83.7220,1011.25,1111122 
COMPS,ioos:station:USF.COMPS:C12:1,2017-04-03T12:05:00Z,27.4980,-83.7220,1011.39,1111122 
COMPS,ioos:station:USF.COMPS:C12:1,2017-04-03T12:35:00Z,27.4980,-83.7220,1011.78,1111122 
COMPS,ioos:station:USF.COMPS:C12:1,2017-04-03T13:05:00Z,27.4980,-83.7220,1011.83,1111122 
COMPS,ioos:station:USF.COMPS:C12:1,2017-04-03T13:35:00Z,27.4980,-83.7220,1011.64,1111122 
COMPS,ioos:station:USF.COMPS:C12:1,2017-04-03T14:05:00Z,27.4980,-83.7220,1011.82,1111122 
COMPS,ioos:station:USF.COMPS:C12:1,2017-04-03T14:35:00Z,27.4980,-83.7220,1011.97,1111122 
COMPS,ioos:station:USF.COMPS:C12:1,2017-04-03T15:05:00Z,27.4980,-83.7220,1012.1,1111122 
COMPS,ioos:station:USF.COMPS:C12:1,2017-04-03T15:35:00Z,27.4980,-83.7220,1011.81,1111122 
COMPS,ioos:station:USF.COMPS:C12:1,2017-04-03T16:05:00Z,27.4980,-83.7220,1011.96,1111122 
COMPS,ioos:station:USF.COMPS:C12:1,2017-04-03T16:35:00Z,27.4980,-83.7220,1012.19,1111122 
COMPS,ioos:station:USF.COMPS:C12:1,2017-04-03T17:05:00Z,27.4980,-83.7220,1012.36,1111122 
COMPS,ioos:station:USF.COMPS:C12:1,2017-04-03T17:35:00Z,27.4980,-83.7220,1012.45,1111122 
COMPS,ioos:station:USF.COMPS:C12:1,2017-04-03T18:05:00Z,27.4980,-83.7220,1012.23,1111122 
COMPS,ioos:station:USF.COMPS:C12:1,2017-04-03T18:35:00Z,27.4980,-83.7220,1011.89,1111122 
COMPS,ioos:station:USF.COMPS:C12:1,2017-04-03T19:05:00Z,27.4980,-83.7220,1011.47,1111122 
COMPS,ioos:station:USF.COMPS:C12:1,2017-04-03T19:35:00Z,27.4980,-83.7220,1011.12,1111122 
COMPS,ioos:station:USF.COMPS:C12:1,2017-04-03T20:05:00Z,27.4980,-83.7220,1010.85,1111122 
COMPS,ioos:station:USF.COMPS:C12:1,2017-04-03T20:35:00Z,27.4980,-83.7220,1010.56,1111122 
COMPS,ioos:station:USF.COMPS:C12:1,2017-04-03T21:05:00Z,27.4980,-83.7220,1010.21,1111122 
COMPS,ioos:station:USF.COMPS:C12:1,2017-04-03T21:35:00Z,27.4980,-83.7220,1010.07,1111122 
COMPS,ioos:station:USF.COMPS:C12:1,2017-04-03T22:05:00Z,27.4980,-83.7220,1010.07,1111122 
COMPS,ioos:station:USF.COMPS:C12:1,2017-04-03T22:35:00Z,27.4980,-83.7220,1009.88,1111122 
COMPS,ioos:station:USF.COMPS:C12:1,2017-04-03T23:05:00Z,27.4980,-83.7220,1010.0,1111122 
COMPS,ioos:station:USF.COMPS:C12:1,2017-04-03T23:35:00Z,27.4980,-83.7220,1010.08,1111122 
COMPS,ioos:station:USF.COMPS:C12:1,2017-04-04T00:05:00Z,27.4980,-83.7220,1010.24,1111122 
COMPS,ioos:station:USF.COMPS:C12:1,2017-04-04T00:35:00Z,27.4980,-83.7220,1010.38,1111122 
COMPS,ioos:station:USF.COMPS:C12:1,2017-04-04T01:05:00Z,27.4980,-83.7220,1010.48,1111122 
COMPS,ioos:station:USF.COMPS:C12:1,2017-04-04T01:35:00Z,27.4980,-83.7220,1010.75,1111122 
COMPS,ioos:station:USF.COMPS:C12:1,2017-04-04T02:05:00Z,27.4980,-83.7220,1010.53,1111122 
COMPS,ioos:station:USF.COMPS:C12:1,2017-04-04T02:35:00Z,27.4980,-83.7220,1010.23,1111122 
COMPS,ioos:station:USF.COMPS:C12:1,2017-04-04T03:05:00Z,27.4980,-83.7220,1010.48,1111122 
COMPS,ioos:station:USF.COMPS:C12:1,2017-04-04T03:35:00Z,27.4980,-83.7220,1010.29,1111122 
COMPS,ioos:station:USF.COMPS:C12:1,2017-04-04T04:05:00Z,27.4980,-83.7220,1010.17,1111122 
COMPS,ioos:station:USF.COMPS:C12:1,2017-04-04T04:35:00Z,27.4980,-83.7220,1010.48,1111122 
COMPS,ioos:station:USF.COMPS:C12:1,2017-04-04T05:05:00Z,27.4980,-83.7220,1010.48,1111122 
COMPS,ioos:station:USF.COMPS:C12:1,2017-04-04T05:35:00Z,27.4980,-83.7220,1010.2,1111122 
COMPS,ioos:station:USF.COMPS:C12:1,2017-04-04T06:05:00Z,27.4980,-83.7220,1010.29,1111122 
COMPS,ioos:station:USF.COMPS:C12:1,2017-04-04T06:35:00Z,27.4980,-83.7220,1010.11,1111122 
COMPS,ioos:station:USF.COMPS:C12:1,2017-04-04T07:05:00Z,27.4980,-83.7220,1009.91,1111122 
COMPS,ioos:station:USF.COMPS:C12:1,2017-04-04T07:35:00Z,27.4980,-83.7220,1009.63,1111122 
COMPS,ioos:station:USF.COMPS:C12:1,2017-04-04T08:05:00Z,27.4980,-83.7220,1009.58,1111122 
COMPS,ioos:station:USF.COMPS:C12:1,2017-04-04T08:35:00Z,27.4980,-83.7220,1009.52,1111122 
COMPS,ioos:station:USF.COMPS:C12:1,2017-04-04T09:05:00Z,27.4980,-83.7220,1009.54,1111122 
COMPS,ioos:station:USF.COMPS:C12:1,2017-04-04T09:35:00Z,27.4980,-83.7220,1009.54,1111122 
COMPS,ioos:station:USF.COMPS:C12:1,2017-04-04T10:05:00Z,27.4980,-83.7220,1009.93,1111122 
COMPS,ioos:station:USF.COMPS:C12:1,2017-04-04T10:35:00Z,27.4980,-83.7220,1009.68,1111122 
COMPS,ioos:station:USF.COMPS:C12:1,2017-04-04T11:05:00Z,27.4980,-83.7220,1009.95,1111122 
COMPS,ioos:station:USF.COMPS:C12:1,2017-04-04T11:35:00Z,27.4980,-83.7220,1010.07,1111122 
COMPS,ioos:station:USF.COMPS:C12:1,2017-04-04T12:05:00Z,27.4980,-83.7220,1010.19,1111122 
COMPS,ioos:station:USF.COMPS:C12:1,2017-04-04T12:35:00Z,27.4980,-83.7220,1010.25,1111122 
COMPS,ioos:station:USF.COMPS:C12:1,2017-04-04T13:05:00Z,27.4980,-83.7220,1010.44,1111122 
COMPS,ioos:station:USF.COMPS:C12:1,2017-04-04T13:35:00Z,27.4980,-83.7220,1010.98,1111122 
COMPS,ioos:station:USF.COMPS:C12:1,2017-04-04T14:05:00Z,27.4980,-83.7220,1011.27,1111122 
COMPS,ioos:station:USF.COMPS:C12:1,2017-04-04T14:35:00Z,27.4980,-83.7220,1011.32,1111122 
COMPS,ioos:station:USF.COMPS:C12:1,2017-04-04T15:05:00Z,27.4980,-83.7220,1011.87,1111122 
COMPS,ioos:station:USF.COMPS:C12:1,2017-04-04T15:35:00Z,27.4980,-83.7220,1012.59,1111122 
COMPS,ioos:station:USF.COMPS:C12:1,2017-04-04T16:05:00Z,27.4980,-83.7220,1012.73,1111122 
COMPS,ioos:station:USF.COMPS:C12:1,2017-04-04T16:35:00Z,27.4980,-83.7220,1012.19,1111122 
COMPS,ioos:station:USF.COMPS:C12:1,2017-04-04T17:05:00Z,27.4980,-83.7220,1012.33,1111122 
COMPS,ioos:station:USF.COMPS:C12:1,2017-04-04T17:35:00Z,27.4980,-83.7220,1011.86,1111122 
COMPS,ioos:station:USF.COMPS:C12:1,2017-04-04T18:05:00Z,27.4980,-83.7220,1011.55,1111122 
COMPS,ioos:station:USF.COMPS:C12:1,2017-04-04T18:35:00Z,27.4980,-83.7220,1011.22,1111122 
COMPS,ioos:station:USF.COMPS:C12:1,2017-04-04T19:05:00Z,27.4980,-83.7220,1010.97,1111122 
COMPS,ioos:station:USF.COMPS:C12:1,2017-04-04T19:35:00Z,27.4980,-83.7220,1010.38,1111122 
COMPS,ioos:station:USF.COMPS:C12:1,2017-04-04T20:05:00Z,27.4980,-83.7220,1010.19,1111122 
COMPS,ioos:station:USF.COMPS:C12:1,2017-04-04T20:35:00Z,27.4980,-83.7220,1010.33,1111122 
COMPS,ioos:station:USF.COMPS:C12:1,2017-04-04T21:05:00Z,27.4980,-83.7220,1010.37,1111122 
COMPS,ioos:station:USF.COMPS:C12:1,2017-04-04T21:35:00Z,27.4980,-83.7220,1010.5,1111122 
COMPS,ioos:station:USF.COMPS:C12:1,2017-04-04T22:05:00Z,27.4980,-83.7220,1010.61,1111122 
COMPS,ioos:station:USF.COMPS:C12:1,2017-04-04T22:35:00Z,27.4980,-83.7220,1010.9,1111122 
COMPS,ioos:station:USF.COMPS:C12:1,2017-04-05T15:05:00Z,27.4980,-83.7220,1012.58,1111122 
COMPS,ioos:station:USF.COMPS:C12:1,2017-04-05T15:35:00Z,27.4980,-83.7220,1012.63,1111122 
COMPS,ioos:station:USF.COMPS:C12:1,2017-04-05T16:05:00Z,27.4980,-83.7220,1012.54,1111122 
COMPS,ioos:station:USF.COMPS:C12:1,2017-04-05T16:35:00Z,27.4980,-83.7220,1012.55,1111122 
COMPS,ioos:station:USF.COMPS:C12:1,2017-04-05T17:05:00Z,27.4980,-83.7220,1012.15,1111122 
COMPS,ioos:station:USF.COMPS:C12:1,2017-04-05T17:35:00Z,27.4980,-83.7220,1011.82,1111122 
COMPS,ioos:station:USF.COMPS:C12:1,2017-04-05T18:05:00Z,27.4980,-83.7220,1011.67,1111122 
COMPS,ioos:station:USF.COMPS:C12:1,2017-04-05T18:35:00Z,27.4980,-83.7220,1011.56,1111122 
COMPS,ioos:station:USF.COMPS:C12:1,2017-04-05T19:05:00Z,27.4980,-83.7220,1011.18,1111122 
COMPS,ioos:station:USF.COMPS:C12:1,2017-04-05T19:35:00Z,27.4980,-83.7220,1011.22,1111122 
COMPS,ioos:station:USF.COMPS:C12:1,2017-04-05T20:05:00Z,27.4980,-83.7220,1011.02,1111122 
COMPS,ioos:station:USF.COMPS:C12:1,2017-04-05T20:35:00Z,27.4980,-83.7220,1011.03,1111122 
COMPS,ioos:station:USF.COMPS:C12:1,2017-04-05T21:05:00Z,27.4980,-83.7220,1011.01,1111122 
COMPS,ioos:station:USF.COMPS:C12:1,2017-04-05T21:35:00Z,27.4980,-83.7220,1011.28,1111122 
COMPS,ioos:station:USF.COMPS:C12:1,2017-04-05T22:05:00Z,27.4980,-83.7220,1011.41,1111122 
COMPS,ioos:station:USF.COMPS:C12:1,2017-04-05T22:35:00Z,27.4980,-83.7220,1011.76,1111122 
COMPS,ioos:station:USF.COMPS:C12:1,2017-04-05T23:05:00Z,27.4980,-83.7220,1011.99,1111122 
COMPS,ioos:station:USF.COMPS:C12:1,2017-04-05T23:35:00Z,27.4980,-83.7220,1012.06,1111122 
COMPS,ioos:station:USF.COMPS:C12:1,2017-04-06T00:05:00Z,27.4980,-83.7220,1011.9,1111122 
COMPS,ioos:station:USF.COMPS:C12:1,2017-04-06T00:35:00Z,27.4980,-83.7220,1011.88,1111122 
COMPS,ioos:station:USF.COMPS:C12:1,2017-04-06T01:05:00Z,27.4980,-83.7220,1012.0,1111122 
COMPS,ioos:station:USF.COMPS:C12:1,2017-04-06T01:35:00Z,27.4980,-83.7220,1012.07,1111122 
COMPS,ioos:station:USF.COMPS:C12:1,2017-04-06T02:05:00Z,27.4980,-83.7220,1012.36,1111122 
COMPS,ioos:station:USF.COMPS:C12:1,2017-04-06T02:35:00Z,27.4980,-83.7220,1012.45,1111122 
COMPS,ioos:station:USF.COMPS:C12:1,2017-04-06T03:05:00Z,27.4980,-83.7220,1012.51,1111122 
COMPS,ioos:station:USF.COMPS:C12:1,2017-04-06T03:35:00Z,27.4980,-83.7220,1012.19,1111122 
COMPS,ioos:station:USF.COMPS:C12:1,2017-04-06T04:05:00Z,27.4980,-83.7220,1012.03,1111122 
COMPS,ioos:station:USF.COMPS:C12:1,2017-04-06T04:35:00Z,27.4980,-83.7220,1011.42,1111122 
COMPS,ioos:station:USF.COMPS:C12:1,2017-04-06T05:05:00Z,27.4980,-83.7220,1011.1,1111122 
COMPS,ioos:station:USF.COMPS:C12:1,2017-04-06T05:35:00Z,27.4980,-83.7220,1011.03,1111122 
COMPS,ioos:station:USF.COMPS:C12:1,2017-04-06T06:05:00Z,27.4980,-83.7220,1011.01,1111122 
COMPS,ioos:station:USF.COMPS:C12:1,2017-04-06T06:35:00Z,27.4980,-83.7220,1010.14,1111122 
COMPS,ioos:station:USF.COMPS:C12:1,2017-04-06T07:05:00Z,27.4980,-83.7220,1010.73,1111122 
COMPS,ioos:station:USF.COMPS:C12:1,2017-04-06T07:35:00Z,27.4980,-83.7220,1010.89,1111122 
COMPS,ioos:station:USF.COMPS:C12:1,2017-04-06T08:05:00Z,27.4980,-83.7220,1009.85,1111122 
COMPS,ioos:station:USF.COMPS:C12:1,2017-04-06T08:35:00Z,27.4980,-83.7220,1009.89,1111122 
COMPS,ioos:station:USF.COMPS:C12:1,2017-04-06T09:05:00Z,27.4980,-83.7220,1010.29,1111122 
COMPS,ioos:station:USF.COMPS:C12:1,2017-04-06T09:35:00Z,27.4980,-83.7220,1010.1,1111122 
COMPS,ioos:station:USF.COMPS:C12:1,2017-04-06T10:05:00Z,27.4980,-83.7220,1010.71,1111122 
COMPS,ioos:station:USF.COMPS:C12:1,2017-04-06T10:35:00Z,27.4980,-83.7220,1011.35,1111122 
COMPS,ioos:station:USF.COMPS:C12:1,2017-04-06T11:05:00Z,27.4980,-83.7220,1011.63,1111122 
COMPS,ioos:station:USF.COMPS:C12:1,2017-04-06T11:35:00Z,27.4980,-83.7220,1012.06,1111122 
COMPS,ioos:station:USF.COMPS:C12:1,2017-04-06T12:05:00Z,27.4980,-83.7220,1012.75,1111122 
COMPS,ioos:station:USF.COMPS:C12:1,2017-04-06T12:35:00Z,27.4980,-83.7220,1013.37,1111122 
COMPS,ioos:station:USF.COMPS:C12:1,2017-04-06T13:05:00Z,27.4980,-83.7220,1013.62,1111122 
COMPS,ioos:station:USF.COMPS:C12:1,2017-04-06T13:35:00Z,27.4980,-83.7220,1014.08,1111122 
COMPS,ioos:station:USF.COMPS:C12:1,2017-04-06T14:05:00Z,27.4980,-83.7220,1014.41,1111122 
COMPS,ioos:station:USF.COMPS:C12:1,2017-04-06T14:35:00Z,27.4980,-83.7220,1014.9,1111122 
COMPS,ioos:station:USF.COMPS:C12:1,2017-04-06T15:05:00Z,27.4980,-83.7220,1015.54,1111122 
COMPS,ioos:station:USF.COMPS:C12:1,2017-04-06T15:35:00Z,27.4980,-83.7220,1015.59,1111122 
COMPS,ioos:station:USF.COMPS:C12:1,2017-04-06T16:05:00Z,27.4980,-83.7220,1015.85,1111122 
COMPS,ioos:station:USF.COMPS:C12:1,2017-04-06T16:35:00Z,27.4980,-83.7220,1015.73,1111122 
COMPS,ioos:station:USF.COMPS:C12:1,2017-04-06T17:05:00Z,27.4980,-83.7220,1015.69,1111122 
COMPS,ioos:station:USF.COMPS:C12:1,2017-04-06T17:35:00Z,27.4980,-83.7220,1015.53,1111122 
COMPS,ioos:station:USF.COMPS:C12:1,2017-04-06T18:05:00Z,27.4980,-83.7220,1015.4,1111122 
COMPS,ioos:station:USF.COMPS:C12:1,2017-04-06T18:35:00Z,27.4980,-83.7220,1015.22,1111122 
COMPS,ioos:station:USF.COMPS:C12:1,2017-04-06T19:05:00Z,27.4980,-83.7220,1014.82,1111122 
COMPS,ioos:station:USF.COMPS:C12:1,2017-04-06T19:35:00Z,27.4980,-83.7220,1014.63,1111122 
COMPS,ioos:station:USF.COMPS:C12:1,2017-04-06T20:05:00Z,27.4980,-83.7220,1014.38,1111122 
COMPS,ioos:station:USF.COMPS:C12:1,2017-04-06T20:35:00Z,27.4980,-83.7220,1013.99,1111122 
COMPS,ioos:station:USF.COMPS:C12:1,2017-04-06T21:05:00Z,27.4980,-83.7220,1013.9,1111122 
COMPS,ioos:station:USF.COMPS:C12:1,2017-04-06T21:35:00Z,27.4980,-83.7220,1014.08,1111122 
COMPS,ioos:station:USF.COMPS:C12:1,2017-04-06T22:05:00Z,27.4980,-83.7220,1014.08,1111122 
COMPS,ioos:station:USF.COMPS:C12:1,2017-04-06T22:35:00Z,27.4980,-83.7220,1014.08,1111122 
COMPS,ioos:station:USF.COMPS:C12:1,2017-04-06T23:05:00Z,27.4980,-83.7220,1014.09,1111122 
COMPS,ioos:station:USF.COMPS:C12:1,2017-04-06T23:35:00Z,27.4980,-83.7220,1014.45,1111122 
COMPS,ioos:station:USF.COMPS:C12:1,2017-04-07T00:05:00Z,27.4980,-83.7220,1014.54,1111122 
COMPS,ioos:station:USF.COMPS:C12:1,2017-04-07T00:35:00Z,27.4980,-83.7220,1014.7,1111122 
COMPS,ioos:station:USF.COMPS:C12:1,2017-04-07T01:05:00Z,27.4980,-83.7220,1014.93,1111122 
COMPS,ioos:station:USF.COMPS:C12:1,2017-04-07T01:35:00Z,27.4980,-83.7220,1015.15,1111122 
COMPS,ioos:station:USF.COMPS:C12:1,2017-04-07T02:05:00Z,27.4980,-83.7220,1015.48,1111122 
COMPS,ioos:station:USF.COMPS:C12:1,2017-04-07T02:35:00Z,27.4980,-83.7220,1016.01,1111122 
COMPS,ioos:station:USF.COMPS:C12:1,2017-04-07T03:05:00Z,27.4980,-83.7220,1016.35,1111122 
COMPS,ioos:station:USF.COMPS:C12:1,2017-04-07T03:35:00Z,27.4980,-83.7220,1016.49,1111122 
COMPS,ioos:station:USF.COMPS:C12:1,2017-04-07T04:05:00Z,27.4980,-83.7220,1016.48,1111122 
COMPS,ioos:station:USF.COMPS:C12:1,2017-04-07T04:35:00Z,27.4980,-83.7220,1016.71,1111122 